Location: Navalmoral
(40.4603°N, 4.7686°W)
Time: 21:52:52
(UTC+00:00)

Landsat 5 - Pass Details

Date: 05 August 2024
Orbit: 514 x 626 km, 98.1° (Epoch: 18 September)

Event Time Altitude Azimuth Distance (km) Brightness Sun altitude
Rises 22:23:10 0° 10° (N) 2,850 7.6 -26.3°
Reaches altitude 10° 22:25:23 10° 9° (N) 1,925 6.7 -26.5°
Enters shadow 22:28:36 51° 352° (N) 736 4.2 -26.8°
